Regional Weather Roundup
Issued by NWS Sioux Falls, SD

Home | Current Version | Previous Version | Text Only | Print | Product List | Glossary On
Versions: 1 2 3 4 5 6 7 8 9 10 11 12 13 14 15 16 17 18 19 20 21 22 23 24 25 26 27 28 29 30 31 32 33 34 35 36 37 38 39 40 41 42 43 44 45 46 47 48 49 50
000
ASUS43 KFSD 180510
RWRFSD

WEATHER ROUNDUP FOR SE SOUTH DAKOTA/SW MINNESOTA/NW IOWA
NATIONAL WEATHER SERVICE SIOUX FALLS SD
1100 PM CST FRI NOV 17 2017

NOTE: "FAIR" INDICATES FEW OR NO CLOUDS BELOW 12,000 FEET WITH NO
SIGNIFICANT WEATHER AND OR OBSTRUCTIONS TO VISIBILITY.


SDZ038>040-050-052>070-180600-
SOUTHEAST SOUTH DAKOTA

CITY           SKY/WX    TMP DP  RH WIND       PRES   REMARKS
BROOKINGS      CLOUDY    32  28  85 N9        29.72S WCI  24
CHAMBERLAIN    CLOUDY    40  32  73 CALM      29.77F
HURON          CLOUDY    34  24  67 N8        29.77R WCI  27
MADISON        CLOUDY    32  32 100 N12       29.73R WCI  23
MITCHELL       CLOUDY    37  28  70 N6        29.76S
SIOUX FALLS    CLOUDY    37  32  82 N8        29.72R
WINNER         CLOUDY    40  35  83 N7        29.76F
YANKTON        MOCLDY    40  35  83 N10       29.71R
$$

MNZ071-072-080-081-089-090-097-098-180600-
SOUTHWEST MINNESOTA

CITY           SKY/WX    TMP DP  RH WIND       PRES   REMARKS
FAIRMONT       CLOUDY    37  35  92 N15       29.64R
JACKSON        MOCLDY    34  32  93 N7        29.66R WCI  28
LUVERNE        CLOUDY    34  30  86 N10       29.69R WCI  26
MARSHALL       CLOUDY    33  27  78 N15       29.73R WCI  23
MONTEVIDEO     CLOUDY    30  27  86 N12       29.73S WCI  21
PIPESTONE      CLOUDY    34  28  80 N9        29.69R WCI  26
REDWOOD FALLS  CLOUDY    36  31  82 NW10      29.71R
WINDOM         CLOUDY    36  23  60 NW15      29.67S
WORTHINGTON    CLOUDY    34  32  92 N14       29.68R WCI  25
$$

IAZ001>003-012>014-020>022-031-032-NEZ013-014-SDZ071-180600-
NORTHWEST IOWA

CITY           SKY/WX    TMP DP  RH WIND       PRES   REMARKS
CHEROKEE       RAIN      39  38  94 N10       29.67R
DENISON        CLOUDY    43  41  93 N13G20    29.66R
ESTHERVILLE    CLOUDY    37  37 100 N10       29.66R FOG
LE MARS        LGT RAIN  39  37  93 N9        29.69R
ORANGE CITY    DRIZZLE   39  37  93 N10       29.67S
SHELDON        CLOUDY    37  34  87 N10       29.66S
SIOUX CITY     LGT RAIN  41  39  93 N9        29.68R
SPENCER        CLOUDY    39  36  89 N10       29.67R
STORM LAKE     LGT RAIN  39  37  93 N15G21    29.62S
$$

ABBREVIATIONS USED IN REMARKS
   TC - TEMPERATURE IN CELSIUS
  WCI - WIND CHILL INDEX
   HX - HEAT INDEX
  VSB - VISIBILITY




USA.gov is the U.S. government's official web portal to all federal, state and local government web resources and services.